Hourly Data Report for September 22, 2020

OTTAWA INTL A
ONTARIO
Current Station Operator: NAVCAN

45°19'00.000" N
75°40'00.000" W
114.90 m
6106001
71628
YOW

Download Data

Hourly Data (September 2020)
Hourly Data Report for September 22, 2020
TIME
LST
Temp Definition
°C
Dew Point Definition
°C
Rel Hum Definition
%
Precip. Amount Definition
mm

Wind Dir Definition
10's deg

Wind Spd Definition
km/h
Visibility Definition
km
Stn Press Definition
kPa
Hmdx Definition


Wind Chill Definition


Weather Definition


00:00 6.0 1.5 73   36 2 24.1 101.47     LegendNANA
01:00 3.1 0.9 85   5 4 24.1 101.39     Mainly Clear
02:00 4.2 0.6 78   1 9 24.1 101.35     LegendNANA
03:00 4.4 3.2 92   4 5 24.1 101.36     LegendNANA
04:00 3.1 2.0 92   5 7 24.1 101.31     Clear
05:00 2.8 1.9 94   5 5 24.1 101.23     LegendNANA
06:00 2.8 2.0 94   6 7 24.1 101.21     LegendNANA
07:00 4.8 3.8 93   4 9 24.1 101.21     Clear
08:00 8.3 5.2 81   7 7 24.1 101.13     LegendNANA
09:00 11.3 6.1 70   5 5 24.1 101.09     LegendNANA
10:00 13.8 5.4 56   32 7 24.1 101.01     Clear
11:00 15.7 4.6 47   25 6 24.1 100.93     LegendNANA
12:00 17.2 4.8 44   24 9 24.1 100.77     LegendNANA
13:00 17.9 5.7 44   24 9 24.1 100.60     Mostly Cloudy
14:00 18.8 5.8 42   27 5 24.1 100.48     LegendNANA
15:00 18.9 6.4 44   29 6 24.1 100.36     LegendNANA
16:00 18.9 7.2 46   23 10 24.1 100.29     Mostly Cloudy
17:00 17.6 9.2 58   24 7 24.1 100.22     LegendNANA
18:00 15.6 7.2 57   18 7 24.1 100.13     LegendNANA
19:00 14.0 7.3 64   21 9 24.1 100.07     Mainly Clear
20:00 12.8 7.4 70   17 9 24.1 100.02     LegendNANA
21:00 13.3 8.1 71   20 9 24.1 99.94     LegendNANA
22:00 11.7 8.0 78   23 11 24.1 99.89     Mainly Clear
23:00 10.3 8.0 86   25 13 24.1 99.82     LegendNANA

Notes on Data Quality.

Legend

  • E = Estimated
  • M = Missing
  • NA = Not Available*
  • [empty] = Indicates an unobserved value
Date modified: